GFSSE_prec_precacc_279.txt.gz
Total_Precipitation_Accumulation
0.51 0.16 0.15 0.28 0.24 0.16 0.13 0.09 0.06 0.05 0.09 0.07 0.07 0.05 0.05 0.04 0.06 0.04 0.12 0.17 0.11 0.13 0.09 0.02 0.02 0.06 0.10 0.12 0.18 0.28 0.21 0.31 0.49 0.77 0.63 0.51 0.35 0.32 0.36 0.45 0.61 0.94 1.20
0.76 0.47 0.47 0.35 0.17 0.15 0.21 0.15 0.09 0.07 0.10 0.07 0.03 0.01 0.01 0.01 0.02 0.05 0.17 0.24 0.23 0.16 0.13 0.05 0.05 0.07 0.14 0.11 0.10 0.13 0.13 0.10 0.14 0.41 0.71 0.94 0.73 0.53 0.64 0.62 0.49 0.68 0.94
1.57 1.10 1.61 1.35 0.68 0.31 0.27 0.23 0.09 0.08 0.06 0.05 0.02 0.01 0.02 0.02 0.02 0.03 0.04 0.12 0.16 0.10 0.09 0.05 0.06 0.08 0.10 0.10 0.13 0.12 0.05 0.03 0.08 0.20 0.53 0.94 0.83 1.07 0.65 0.45 0.40 0.61 0.76
1.53 1.61 1.47 2.33 1.47 1.00 0.75 0.82 0.87 0.41 0.29 0.09 0.07 0.10 0.12 0.09 0.08 0.10 0.07 0.11 0.09 0.09 0.10 0.10 0.12 0.14 0.13 0.12 0.12 0.09 0.03 0.02 0.02 0.11 0.40 1.56 1.45 1.10 0.84 0.52 0.59 0.73 0.88
1.09 1.01 1.31 2.12 1.59 1.06 1.15 1.15 1.68 2.01 1.89 1.04 0.46 0.42 0.39 0.31 0.20 0.12 0.11 0.11 0.11 0.16 0.15 0.10 0.17 0.17 0.07 0.03 0.08 0.11 0.01 0.02 0.07 0.21 1.20 1.26 0.98 1.52 1.66 0.96 0.84 0.69 0.93
2.08 1.53 1.80 2.17 1.34 0.75 1.13 1.46 1.53 2.18 3.37 4.19 4.09 2.55 1.36 0.89 0.47 0.41 0.30 0.26 0.27 0.33 0.40 0.43 0.45 0.36 0.03 0.01 0.00 0.02 0.01 0.04 0.21 0.43 1.35 0.74 1.10 1.24 1.19 1.03 0.61 0.66 0.95
4.59 4.05 3.70 4.00 5.13 2.85 2.56 1.76 1.36 1.47 2.52 4.90 5.29 3.92 2.58 1.93 1.72 1.18 0.69 0.51 0.55 0.52 0.42 0.44 0.26 0.19 0.03 0.01 0.01 0.05 0.04 0.06 0.21 0.46 1.01 0.67 1.33 1.23 1.04 0.90 0.73 0.59 0.67
6.63 8.76 9.08 7.75 8.10 7.64 4.86 3.04 1.99 1.41 1.26 1.68 2.39 2.00 2.09 2.35 1.79 1.64 1.44 0.88 0.60 0.43 0.40 0.29 0.13 0.08 0.06 0.03 0.04 0.10 0.07 0.04 0.16 0.64 1.30 0.91 1.14 1.25 0.80 0.65 0.47 0.38 0.35
5.54 7.05 10.73 9.55 7.17 5.94 6.78 5.98 3.58 2.63 1.74 1.50 1.48 1.79 1.43 2.21 1.72 1.28 1.40 1.61 0.78 0.42 0.62 0.48 0.33 0.54 0.22 0.24 0.21 0.19 0.11 0.10 0.22 0.46 0.99 0.65 0.86 1.40 0.99 0.60 0.41 0.31 0.27
2.60 3.37 3.98 4.09 3.32 2.93 3.65 4.60 4.44 3.05 2.55 2.21 1.49 1.61 1.74 1.69 1.59 1.43 1.46 1.68 1.33 0.59 0.52 0.52 0.69 0.52 0.57 0.39 0.22 0.26 0.30 0.29 0.18 0.57 0.66 0.41 0.67 1.13 1.11 0.67 0.53 0.44 0.30
2.30 1.64 1.69 1.30 0.90 0.88 1.34 2.08 2.81 2.59 2.65 2.61 2.12 1.37 2.08 2.20 1.31 1.60 1.83 1.64 1.13 0.61 0.56 0.59 0.57 0.61 0.59 0.63 0.65 0.64 0.46 0.21 0.31 0.38 0.46 0.31 0.59 0.63 0.95 1.15 0.80 0.56 0.50
0.95 0.78 0.51 0.41 0.33 0.30 0.30 0.47 0.80 1.57 2.31 2.35 2.90 1.66 1.55 2.43 1.42 1.50 1.89 1.38 1.16 0.76 0.54 0.56 0.52 0.56 0.54 0.44 0.59 0.52 0.25 0.19 0.31 0.56 0.40 0.29 0.50 0.54 0.90 1.09 0.68 0.67 0.69
0.32 0.22 0.28 0.50 0.51 0.25 0.26 0.24 0.32 0.77 1.56 1.62 2.61 2.26 1.00 1.45 1.74 1.82 2.22 1.40 0.98 0.93 0.74 0.65 0.38 0.32 0.27 0.29 0.34 0.38 0.41 0.42 0.52 0.53 0.43 0.21 0.45 0.68 0.94 0.71 0.58 0.55 0.56
0.16 0.16 0.12 0.18 0.27 0.29 0.28 0.27 0.29 0.56 0.98 1.02 1.39 2.46 1.26 1.17 1.35 1.57 1.64 1.25 0.66 0.60 0.57 0.61 0.46 0.40 0.38 0.43 0.38 0.37 0.48 0.77 0.89 1.14 0.56 0.29 0.51 1.03 0.91 0.76 0.58 0.49 0.49
0.08 0.16 0.20 0.21 0.39 0.49 0.49 0.37 0.30 0.79 0.95 0.87 0.90 1.28 1.26 1.16 1.01 1.39 1.18 1.44 0.80 0.57 0.47 0.50 0.40 0.35 0.32 0.35 0.25 0.32 0.43 0.72 1.30 1.06 0.71 0.39 0.37 0.71 1.06 1.04 0.80 0.52 0.56
0.10 0.19 0.28 0.29 0.47 0.37 0.50 0.58 0.67 0.83 0.95 0.82 0.74 0.91 0.96 1.11 1.10 1.30 1.21 1.14 1.04 1.02 0.54 0.49 0.46 0.27 0.30 0.35 0.39 0.27 0.29 0.34 0.54 0.58 0.43 0.36 0.47 0.71 1.23 1.53 1.49 1.16 0.70
0.22 0.25 0.42 0.65 0.56 0.29 0.26 0.31 0.66 1.07 0.89 0.78 0.79 0.83 0.87 0.86 0.94 1.03 1.14 1.05 0.90 1.29 0.85 0.59 0.65 0.63 0.46 0.31 0.33 0.36 0.38 0.24 0.16 0.18 0.25 0.30 0.40 0.62 0.75 1.06 1.43 1.52 1.42
0.07 0.19 0.43 0.61 0.58 0.51 0.33 0.46 0.49 0.86 1.10 0.93 0.71 0.76 1.06 1.01 0.94 0.86 1.04 0.85 1.06 1.03 0.85 0.72 0.90 0.89 0.76 0.40 0.37 0.36 0.43 0.40 0.33 0.25 0.15 0.17 0.20 0.18 0.36 0.69 0.92 1.39 1.56
0.02 0.19 0.62 0.82 0.83 0.78 0.69 0.73 1.01 0.98 0.97 0.78 0.77 0.70 0.68 0.74 0.97 0.90 0.90 1.00 1.21 1.32 1.19 1.22 1.14 1.09 0.86 0.67 0.43 0.31 0.35 0.35 0.24 0.25 0.17 0.12 0.13 0.18 0.22 0.41 0.60 0.80 1.38
0.03 0.26 0.74 0.92 1.16 1.30 1.14 1.06 0.89 0.81 0.73 0.72 0.66 0.78 0.87 0.86 0.83 0.96 0.87 0.83 1.07 1.39 1.10 1.04 0.93 1.00 0.98 1.01 0.83 0.79 0.71 0.66 0.51 0.40 0.32 0.25 0.22 0.26 0.31 0.32 0.49 0.52 0.60
0.10 0.40 0.74 0.90 1.20 1.16 0.66 0.53 0.57 0.57 0.45 0.60 0.64 0.87 1.07 1.25 1.17 1.03 0.89 0.87 0.98 1.02 1.03 1.32 1.58 1.76 1.62 1.49 1.25 1.11 0.74 0.63 0.53 0.37 0.32 0.25 0.24 0.30 0.40 0.48 0.65 0.73 0.71
0.24 0.52 0.62 0.49 0.35 0.21 0.18 0.29 0.42 0.51 0.52 0.48 0.58 0.80 0.89 1.36 1.29 0.97 0.92 0.90 1.03 1.14 1.07 1.00 1.19 1.34 1.24 1.52 1.51 1.55 1.28 0.99 0.65 0.43 0.36 0.33 0.33 0.42 0.47 0.50 0.63 0.78 0.98
0.15 0.16 0.14 0.11 0.09 0.13 0.16 0.38 0.61 0.91 0.84 0.69 0.60 0.60 0.76 1.12 1.48 1.40 1.18 1.01 0.98 1.41 1.67 1.44 1.38 1.56 1.39 1.51 1.88 2.06 1.82 1.20 0.74 0.67 0.86 0.55 0.56 0.58 0.74 1.06 1.44 1.80 2.04
0.03 0.14 0.15 0.15 0.17 0.26 0.30 0.40 0.54 0.54 0.42 0.28 0.31 0.41 0.51 1.05 1.65 1.46 1.63 1.71 1.53 1.29 1.47 1.85 1.93 1.78 2.10 1.99 2.58 2.29 1.90 2.06 1.99 1.82 1.40 1.04 1.10 1.16 1.44 1.71 1.63 1.58 1.52
0.09 0.16 0.18 0.17 0.21 0.32 0.38 0.43 0.76 0.83 0.86 0.88 1.03 1.18 1.24 1.41 1.81 1.94 1.87 2.36 2.24 2.03 1.70 2.07 2.87 3.34 3.26 3.69 3.69 3.24 3.21 2.89 2.46 2.53 2.21 2.23 2.39 1.73 1.44 1.33 1.29 1.36 1.35
0.13 0.18 0.15 0.27 0.43 0.74 0.99 1.15 1.32 1.55 1.61 1.60 1.59 1.59 1.70 1.87 2.27 2.56 2.73 2.64 3.13 3.17 2.87 2.62 2.99 3.82 4.25 4.02 3.43 3.54 3.48 3.17 2.63 3.59 3.62 2.93 2.50 2.17 2.00 1.82 1.34 1.07 1.26

GFSSE_prec_precacc_282.txt.gz
Total_Precipitation_Accumulation
0.51 0.16 0.15 0.28 0.24 0.16 0.13 0.09 0.06 0.05 0.09 0.07 0.07 0.05 0.05 0.04 0.06 0.04 0.12 0.17 0.11 0.13 0.09 0.02 0.02 0.06 0.10 0.12 0.18 0.28 0.21 0.31 0.49 0.77 0.63 0.51 0.35 0.32 0.36 0.45 0.61 0.94 1.20
0.76 0.47 0.47 0.35 0.17 0.15 0.21 0.15 0.09 0.07 0.10 0.07 0.03 0.01 0.01 0.01 0.02 0.05 0.17 0.24 0.23 0.16 0.13 0.05 0.05 0.07 0.14 0.11 0.10 0.13 0.13 0.10 0.14 0.41 0.71 0.94 0.73 0.53 0.64 0.62 0.49 0.68 0.94
1.57 1.10 1.61 1.35 0.68 0.31 0.27 0.23 0.09 0.08 0.06 0.05 0.02 0.01 0.02 0.02 0.02 0.03 0.04 0.12 0.16 0.10 0.09 0.05 0.06 0.08 0.10 0.10 0.13 0.12 0.05 0.03 0.08 0.20 0.53 0.94 0.83 1.07 0.65 0.45 0.40 0.61 0.76
1.53 1.61 1.47 2.33 1.47 1.00 0.75 0.82 0.87 0.41 0.29 0.09 0.07 0.10 0.12 0.09 0.08 0.10 0.07 0.11 0.09 0.09 0.10 0.10 0.12 0.14 0.13 0.12 0.12 0.09 0.03 0.02 0.02 0.11 0.40 1.56 1.45 1.10 0.84 0.52 0.59 0.73 0.88
1.09 1.01 1.31 2.12 1.59 1.06 1.15 1.15 1.68 2.01 1.89 1.04 0.46 0.42 0.39 0.31 0.20 0.12 0.11 0.11 0.11 0.16 0.15 0.10 0.17 0.17 0.07 0.03 0.08 0.11 0.01 0.02 0.07 0.21 1.20 1.26 0.98 1.52 1.66 0.96 0.84 0.69 0.93
2.08 1.53 1.80 2.17 1.34 0.75 1.13 1.46 1.53 2.18 3.37 4.19 4.09 2.55 1.36 0.89 0.47 0.41 0.30 0.26 0.27 0.33 0.40 0.43 0.45 0.36 0.03 0.01 0.00 0.02 0.01 0.04 0.21 0.43 1.35 0.74 1.10 1.24 1.19 1.03 0.61 0.66 0.95
4.59 4.05 3.70 4.00 5.13 2.85 2.56 1.76 1.36 1.47 2.52 4.90 5.29 3.92 2.58 1.93 1.72 1.18 0.69 0.51 0.55 0.52 0.42 0.44 0.26 0.19 0.03 0.01 0.01 0.05 0.04 0.06 0.21 0.46 1.01 0.67 1.33 1.23 1.04 0.90 0.73 0.59 0.67
6.63 8.76 9.08 7.75 8.10 7.64 4.86 3.04 1.99 1.41 1.26 1.68 2.39 2.00 2.09 2.35 1.79 1.64 1.44 0.88 0.60 0.43 0.40 0.29 0.13 0.08 0.06 0.03 0.04 0.10 0.07 0.04 0.16 0.64 1.30 0.91 1.14 1.25 0.80 0.65 0.47 0.38 0.35
5.54 7.05 10.73 9.55 7.17 5.94 6.78 5.98 3.58 2.63 1.74 1.50 1.48 1.79 1.43 2.21 1.72 1.28 1.40 1.61 0.78 0.42 0.62 0.48 0.33 0.54 0.22 0.24 0.21 0.19 0.11 0.10 0.22 0.46 0.99 0.65 0.86 1.40 0.99 0.60 0.41 0.31 0.27
2.60 3.37 3.98 4.09 3.32 2.93 3.65 4.60 4.44 3.05 2.55 2.21 1.49 1.61 1.74 1.69 1.59 1.43 1.46 1.68 1.33 0.59 0.52 0.52 0.69 0.52 0.57 0.39 0.22 0.26 0.30 0.29 0.18 0.57 0.66 0.41 0.67 1.13 1.11 0.67 0.53 0.44 0.30
2.30 1.64 1.69 1.30 0.90 0.88 1.34 2.08 2.81 2.59 2.65 2.61 2.12 1.37 2.08 2.20 1.31 1.60 1.83 1.64 1.13 0.61 0.56 0.59 0.57 0.61 0.59 0.63 0.65 0.64 0.46 0.21 0.31 0.38 0.46 0.31 0.59 0.63 0.95 1.15 0.80 0.56 0.50
0.95 0.78 0.51 0.41 0.33 0.30 0.30 0.47 0.80 1.57 2.31 2.35 2.90 1.66 1.55 2.43 1.42 1.50 1.89 1.38 1.16 0.76 0.54 0.56 0.52 0.56 0.54 0.44 0.59 0.52 0.25 0.19 0.31 0.56 0.40 0.29 0.50 0.54 0.90 1.09 0.68 0.67 0.69
0.32 0.22 0.28 0.50 0.51 0.25 0.26 0.24 0.32 0.77 1.56 1.62 2.61 2.26 1.00 1.45 1.74 1.82 2.22 1.40 0.98 0.93 0.74 0.65 0.38 0.32 0.27 0.29 0.34 0.38 0.41 0.42 0.52 0.53 0.43 0.21 0.45 0.68 0.94 0.71 0.58 0.55 0.56
0.16 0.16 0.12 0.18 0.27 0.29 0.28 0.27 0.29 0.56 0.98 1.02 1.39 2.46 1.26 1.17 1.35 1.57 1.64 1.25 0.66 0.60 0.57 0.61 0.46 0.40 0.38 0.43 0.38 0.37 0.48 0.77 0.89 1.14 0.56 0.29 0.51 1.03 0.91 0.76 0.58 0.49 0.49
0.08 0.16 0.20 0.21 0.39 0.49 0.49 0.37 0.30 0.79 0.95 0.87 0.90 1.28 1.26 1.16 1.01 1.39 1.18 1.44 0.80 0.57 0.47 0.50 0.40 0.35 0.32 0.35 0.25 0.32 0.43 0.72 1.30 1.06 0.71 0.39 0.37 0.71 1.06 1.04 0.80 0.52 0.56
0.10 0.19 0.28 0.29 0.47 0.37 0.50 0.58 0.67 0.83 0.95 0.82 0.74 0.91 0.96 1.11 1.10 1.30 1.21 1.14 1.04 1.02 0.54 0.49 0.46 0.27 0.30 0.35 0.39 0.27 0.29 0.34 0.54 0.58 0.43 0.36 0.47 0.71 1.23 1.53 1.49 1.16 0.70
0.22 0.25 0.42 0.65 0.56 0.29 0.26 0.31 0.66 1.07 0.89 0.78 0.79 0.83 0.87 0.86 0.94 1.03 1.14 1.05 0.90 1.29 0.85 0.59 0.65 0.63 0.46 0.31 0.33 0.36 0.38 0.24 0.16 0.18 0.25 0.30 0.40 0.62 0.75 1.06 1.43 1.52 1.42
0.07 0.19 0.43 0.61 0.58 0.51 0.33 0.46 0.49 0.86 1.10 0.93 0.71 0.76 1.06 1.01 0.94 0.86 1.04 0.85 1.06 1.03 0.85 0.72 0.90 0.89 0.76 0.40 0.37 0.36 0.43 0.40 0.33 0.25 0.15 0.17 0.20 0.18 0.36 0.69 0.92 1.39 1.56
0.02 0.19 0.62 0.82 0.83 0.78 0.69 0.73 1.01 0.98 0.97 0.78 0.77 0.70 0.68 0.74 0.97 0.90 0.90 1.00 1.21 1.32 1.19 1.22 1.14 1.09 0.86 0.67 0.43 0.31 0.35 0.35 0.24 0.25 0.17 0.12 0.13 0.18 0.22 0.41 0.60 0.82 1.39
0.03 0.26 0.74 0.92 1.16 1.30 1.16 1.07 0.89 0.81 0.73 0.72 0.66 0.78 0.87 0.86 0.83 0.96 0.87 0.83 1.07 1.39 1.10 1.04 0.93 1.00 0.98 1.01 0.83 0.79 0.71 0.66 0.51 0.40 0.32 0.25 0.22 0.26 0.31 0.32 0.49 0.52 0.61
0.10 0.40 0.74 0.90 1.20 1.16 0.66 0.53 0.57 0.57 0.46 0.61 0.64 0.87 1.07 1.25 1.17 1.03 0.89 0.87 0.98 1.02 1.03 1.32 1.58 1.76 1.62 1.49 1.25 1.11 0.74 0.63 0.53 0.37 0.32 0.25 0.24 0.30 0.41 0.48 0.65 0.73 0.71
0.24 0.52 0.62 0.49 0.35 0.21 0.18 0.29 0.42 0.51 0.52 0.49 0.59 0.80 0.89 1.36 1.29 0.97 0.92 0.90 1.03 1.14 1.07 1.00 1.19 1.34 1.24 1.52 1.52 1.57 1.29 1.00 0.66 0.43 0.37 0.41 0.44 0.52 0.64 0.53 0.66 0.80 0.99
0.15 0.16 0.14 0.11 0.09 0.13 0.16 0.38 0.61 0.91 0.84 0.69 0.60 0.60 0.76 1.12 1.48 1.40 1.18 1.01 0.98 1.41 1.67 1.44 1.38 1.56 1.39 1.51 1.89 2.06 1.84 1.22 0.76 0.70 0.96 0.91 0.89 0.84 0.89 1.17 1.52 1.85 2.05
0.03 0.14 0.15 0.15 0.17 0.26 0.30 0.40 0.55 0.54 0.43 0.28 0.31 0.41 0.51 1.05 1.65 1.46 1.63 1.71 1.54 1.29 1.47 1.85 1.93 1.78 2.10 2.00 2.58 2.29 1.91 2.08 2.02 1.82 1.49 1.80 1.67 1.37 1.74 2.09 1.71 1.61 1.53
0.09 0.16 0.18 0.17 0.21 0.32 0.38 0.43 0.76 0.84 0.87 0.88 1.03 1.18 1.24 1.42 1.82 1.94 1.87 2.36 2.25 2.03 1.71 2.07 2.87 3.34 3.27 3.72 3.70 3.24 3.21 2.89 2.50 2.59 2.23 2.34 2.92 2.37 1.83 1.54 1.40 1.39 1.35
0.13 0.18 0.15 0.27 0.43 0.74 0.99 1.16 1.32 1.56 1.62 1.60 1.59 1.61 1.75 1.90 2.31 2.59 2.74 2.66 3.14 3.19 2.89 2.64 3.00 3.83 4.26 4.03 3.45 3.60 3.50 3.19 2.67 3.68 3.74 3.11 2.63 2.44 2.65 1.98 1.36 1.08 1.26

GFSSE_prec_precacc_285.txt.gz
Total_Precipitation_Accumulation
0.51 0.16 0.15 0.28 0.24 0.16 0.13 0.09 0.06 0.05 0.09 0.07 0.07 0.05 0.05 0.04 0.06 0.04 0.12 0.17 0.11 0.13 0.09 0.02 0.02 0.06 0.10 0.12 0.18 0.28 0.21 0.31 0.49 0.77 0.63 0.51 0.35 0.32 0.36 0.45 0.61 0.94 1.20
0.76 0.47 0.47 0.35 0.17 0.15 0.21 0.15 0.09 0.07 0.10 0.07 0.03 0.01 0.01 0.01 0.02 0.05 0.17 0.24 0.23 0.16 0.13 0.05 0.05 0.07 0.14 0.11 0.10 0.13 0.13 0.10 0.14 0.41 0.71 0.94 0.73 0.53 0.64 0.62 0.49 0.68 0.94
1.57 1.10 1.61 1.35 0.68 0.31 0.27 0.23 0.09 0.08 0.06 0.05 0.02 0.01 0.02 0.02 0.02 0.03 0.04 0.12 0.16 0.10 0.09 0.05 0.06 0.08 0.10 0.10 0.13 0.12 0.05 0.03 0.08 0.20 0.53 0.94 0.83 1.07 0.65 0.45 0.40 0.61 0.76
1.53 1.61 1.47 2.33 1.47 1.00 0.75 0.82 0.87 0.41 0.29 0.09 0.07 0.10 0.12 0.09 0.08 0.10 0.07 0.11 0.09 0.09 0.10 0.10 0.12 0.14 0.13 0.12 0.12 0.09 0.03 0.02 0.02 0.11 0.40 1.56 1.45 1.10 0.84 0.52 0.59 0.73 0.88
1.09 1.01 1.31 2.12 1.59 1.06 1.15 1.15 1.68 2.01 1.89 1.04 0.46 0.42 0.39 0.31 0.20 0.12 0.11 0.11 0.11 0.16 0.15 0.10 0.17 0.17 0.07 0.03 0.08 0.11 0.01 0.02 0.07 0.21 1.20 1.26 0.98 1.52 1.66 0.96 0.84 0.69 0.93
2.08 1.53 1.80 2.17 1.34 0.75 1.13 1.46 1.53 2.18 3.37 4.19 4.09 2.55 1.36 0.89 0.47 0.41 0.30 0.26 0.27 0.33 0.40 0.43 0.45 0.36 0.03 0.01 0.00 0.02 0.01 0.04 0.21 0.43 1.35 0.74 1.10 1.24 1.19 1.03 0.61 0.66 0.95
4.59 4.05 3.70 4.00 5.13 2.85 2.56 1.76 1.36 1.47 2.52 4.90 5.29 3.92 2.58 1.93 1.72 1.18 0.69 0.51 0.55 0.52 0.42 0.44 0.26 0.19 0.03 0.01 0.01 0.05 0.04 0.06 0.21 0.46 1.01 0.67 1.33 1.23 1.04 0.90 0.73 0.59 0.67
6.63 8.76 9.08 7.75 8.10 7.64 4.86 3.04 1.99 1.41 1.26 1.68 2.39 2.00 2.09 2.35 1.79 1.64 1.44 0.88 0.60 0.43 0.40 0.29 0.13 0.08 0.06 0.03 0.04 0.10 0.07 0.04 0.16 0.64 1.30 0.91 1.14 1.25 0.80 0.65 0.47 0.38 0.35
5.54 7.05 10.73 9.55 7.17 5.94 6.78 5.98 3.58 2.63 1.74 1.50 1.48 1.79 1.43 2.21 1.72 1.28 1.40 1.61 0.78 0.42 0.62 0.48 0.33 0.54 0.22 0.24 0.21 0.19 0.11 0.10 0.22 0.46 0.99 0.65 0.86 1.40 0.99 0.60 0.41 0.31 0.27
2.60 3.37 3.98 4.09 3.32 2.93 3.65 4.60 4.44 3.05 2.55 2.21 1.49 1.61 1.74 1.69 1.59 1.43 1.46 1.68 1.33 0.59 0.52 0.52 0.69 0.52 0.57 0.39 0.22 0.26 0.30 0.29 0.18 0.57 0.66 0.41 0.67 1.13 1.11 0.67 0.53 0.44 0.30
2.30 1.64 1.69 1.30 0.90 0.88 1.34 2.08 2.81 2.59 2.65 2.61 2.12 1.37 2.08 2.20 1.31 1.60 1.83 1.64 1.13 0.61 0.56 0.59 0.57 0.61 0.59 0.63 0.65 0.64 0.46 0.21 0.31 0.38 0.46 0.31 0.59 0.63 0.95 1.15 0.80 0.56 0.50
0.95 0.78 0.51 0.41 0.33 0.30 0.30 0.47 0.80 1.57 2.31 2.35 2.90 1.66 1.55 2.43 1.42 1.50 1.89 1.38 1.16 0.76 0.54 0.56 0.52 0.56 0.54 0.44 0.59 0.52 0.25 0.19 0.31 0.56 0.40 0.29 0.50 0.54 0.90 1.09 0.68 0.67 0.69
0.32 0.22 0.28 0.50 0.51 0.25 0.26 0.24 0.32 0.77 1.56 1.62 2.61 2.26 1.00 1.45 1.74 1.82 2.22 1.40 0.98 0.93 0.74 0.65 0.38 0.32 0.27 0.29 0.34 0.38 0.41 0.42 0.52 0.53 0.43 0.21 0.45 0.68 0.94 0.71 0.58 0.55 0.56
0.16 0.16 0.12 0.18 0.27 0.29 0.28 0.27 0.29 0.56 0.98 1.02 1.39 2.46 1.26 1.17 1.35 1.57 1.64 1.25 0.66 0.60 0.57 0.61 0.46 0.40 0.38 0.43 0.38 0.37 0.48 0.77 0.89 1.14 0.56 0.29 0.51 1.03 0.91 0.76 0.58 0.49 0.49
0.08 0.16 0.20 0.21 0.39 0.49 0.49 0.37 0.30 0.79 0.95 0.87 0.90 1.28 1.26 1.16 1.01 1.39 1.18 1.44 0.80 0.57 0.47 0.50 0.40 0.35 0.32 0.35 0.25 0.32 0.43 0.72 1.30 1.06 0.71 0.39 0.37 0.71 1.06 1.04 0.80 0.52 0.56
0.10 0.19 0.28 0.29 0.47 0.37 0.50 0.59 0.68 0.83 0.96 0.82 0.74 0.91 0.96 1.11 1.10 1.30 1.21 1.14 1.04 1.02 0.54 0.49 0.46 0.27 0.30 0.35 0.39 0.27 0.29 0.34 0.54 0.58 0.43 0.36 0.47 0.71 1.23 1.53 1.49 1.16 0.70
0.22 0.25 0.42 0.65 0.57 0.31 0.28 0.34 0.68 1.08 0.90 0.78 0.79 0.83 0.87 0.86 0.94 1.03 1.14 1.05 0.90 1.29 0.85 0.59 0.65 0.63 0.46 0.31 0.33 0.36 0.38 0.24 0.16 0.18 0.25 0.30 0.40 0.62 0.75 1.06 1.43 1.52 1.42
0.07 0.19 0.43 0.61 0.60 0.67 0.52 0.57 0.58 0.87 1.12 0.93 0.72 0.76 1.06 1.01 0.94 0.86 1.04 0.85 1.06 1.03 0.85 0.72 0.90 0.89 0.76 0.40 0.37 0.36 0.43 0.40 0.33 0.25 0.15 0.17 0.20 0.18 0.36 0.69 0.92 1.39 1.56
0.02 0.19 0.62 0.82 0.83 0.86 0.81 0.86 1.18 1.12 1.09 0.86 0.85 0.76 0.69 0.74 0.97 0.90 0.91 1.00 1.21 1.32 1.19 1.22 1.14 1.09 0.86 0.67 0.43 0.31 0.35 0.35 0.24 0.25 0.17 0.12 0.13 0.18 0.22 0.41 0.60 0.82 1.40
0.03 0.26 0.74 0.92 1.16 1.32 1.19 1.12 1.00 1.04 0.96 0.87 0.78 0.86 0.92 0.88 0.83 0.96 0.87 0.83 1.08 1.39 1.10 1.04 0.93 1.00 0.98 1.01 0.83 0.79 0.71 0.66 0.51 0.40 0.32 0.25 0.22 0.26 0.31 0.34 0.51 0.55 0.64
0.10 0.40 0.74 0.90 1.20 1.16 0.66 0.54 0.58 0.60 0.51 0.65 0.66 0.89 1.12 1.32 1.19 1.03 0.89 0.87 0.99 1.02 1.04 1.32 1.58 1.76 1.62 1.49 1.25 1.11 0.74 0.63 0.53 0.37 0.32 0.25 0.24 0.30 0.41 0.50 0.66 0.78 0.77
0.24 0.52 0.62 0.49 0.35 0.21 0.18 0.29 0.42 0.52 0.55 0.51 0.61 0.81 0.89 1.37 1.31 1.00 0.92 0.90 1.03 1.14 1.07 1.00 1.19 1.35 1.24 1.52 1.52 1.57 1.30 1.00 0.66 0.43 0.37 0.41 0.44 0.52 0.65 0.60 0.81 0.92 1.22
0.15 0.16 0.14 0.11 0.09 0.13 0.16 0.38 0.61 0.92 0.85 0.71 0.63 0.63 0.77 1.14 1.50 1.42 1.19 1.01 0.98 1.41 1.67 1.44 1.38 1.57 1.41 1.52 1.89 2.06 1.84 1.23 0.76 0.70 0.96 0.92 0.91 0.88 0.92 1.22 1.71 2.09 2.38
0.03 0.14 0.15 0.15 0.17 0.26 0.30 0.40 0.55 0.54 0.43 0.28 0.31 0.43 0.54 1.11 1.68 1.48 1.70 1.76 1.55 1.30 1.48 1.85 1.93 1.78 2.13 2.03 2.59 2.29 1.91 2.08 2.02 1.82 1.49 1.82 1.74 1.42 1.78 2.25 2.05 2.03 2.19
0.09 0.16 0.18 0.17 0.21 0.32 0.38 0.43 0.76 0.84 0.87 0.88 1.03 1.18 1.25 1.48 1.93 2.08 2.13 2.68 2.48 2.13 1.72 2.08 2.88 3.35 3.27 3.74 3.73 3.26 3.21 2.89 2.52 2.62 2.25 2.34 2.93 2.38 1.87 1.71 2.05 2.10 1.79
0.13 0.18 0.15 0.27 0.43 0.74 0.99 1.16 1.32 1.56 1.62 1.60 1.59 1.61 1.76 1.94 2.40 2.80 2.93 2.82 3.31 3.35 2.98 2.67 3.02 3.84 4.29 4.05 3.47 3.63 3.53 3.21 2.70 3.73 3.81 3.14 2.65 2.47 2.82 2.65 1.75 1.61 1.72

GFSSE_prec_precacc_291.txt.gz
Total_Precipitation_Accumulation
0.51 0.16 0.15 0.28 0.24 0.16 0.13 0.09 0.06 0.05 0.09 0.07 0.07 0.05 0.05 0.04 0.06 0.04 0.12 0.17 0.11 0.13 0.09 0.02 0.02 0.06 0.10 0.12 0.18 0.28 0.21 0.31 0.49 0.77 0.63 0.51 0.35 0.32 0.36 0.45 0.61 0.94 1.20
0.76 0.47 0.47 0.35 0.17 0.15 0.21 0.15 0.09 0.07 0.10 0.07 0.03 0.01 0.01 0.01 0.02 0.05 0.17 0.24 0.23 0.16 0.13 0.05 0.05 0.07 0.14 0.11 0.10 0.13 0.13 0.10 0.14 0.41 0.71 0.94 0.73 0.53 0.64 0.62 0.49 0.68 0.94
1.57 1.10 1.61 1.35 0.68 0.31 0.27 0.23 0.09 0.08 0.06 0.05 0.02 0.01 0.02 0.02 0.02 0.03 0.04 0.12 0.16 0.10 0.09 0.05 0.06 0.08 0.10 0.10 0.13 0.12 0.05 0.03 0.08 0.20 0.53 0.94 0.83 1.07 0.65 0.45 0.40 0.61 0.76
1.53 1.61 1.47 2.33 1.47 1.00 0.75 0.82 0.87 0.41 0.29 0.09 0.07 0.10 0.12 0.09 0.08 0.10 0.07 0.11 0.09 0.09 0.10 0.10 0.12 0.14 0.13 0.12 0.12 0.09 0.03 0.02 0.02 0.11 0.40 1.56 1.45 1.10 0.84 0.52 0.59 0.73 0.88
1.09 1.01 1.31 2.12 1.59 1.06 1.15 1.15 1.68 2.01 1.89 1.04 0.46 0.42 0.39 0.31 0.20 0.12 0.11 0.11 0.11 0.16 0.15 0.10 0.17 0.17 0.07 0.03 0.08 0.11 0.01 0.02 0.07 0.21 1.20 1.26 0.98 1.52 1.66 0.96 0.84 0.69 0.93
2.08 1.53 1.80 2.17 1.34 0.75 1.13 1.46 1.53 2.18 3.37 4.19 4.09 2.55 1.36 0.89 0.47 0.41 0.30 0.26 0.27 0.33 0.40 0.43 0.45 0.36 0.03 0.01 0.00 0.02 0.01 0.04 0.21 0.43 1.35 0.74 1.10 1.24 1.19 1.03 0.61 0.66 0.95
4.59 4.05 3.70 4.00 5.13 2.85 2.56 1.76 1.36 1.47 2.52 4.90 5.29 3.92 2.58 1.93 1.72 1.18 0.69 0.51 0.55 0.52 0.42 0.44 0.26 0.19 0.03 0.01 0.01 0.05 0.04 0.06 0.21 0.46 1.01 0.67 1.33 1.23 1.04 0.90 0.73 0.59 0.67
6.63 8.76 9.08 7.75 8.10 7.64 4.86 3.04 1.99 1.41 1.26 1.68 2.39 2.00 2.09 2.35 1.79 1.64 1.44 0.88 0.60 0.43 0.40 0.29 0.13 0.08 0.06 0.03 0.04 0.10 0.07 0.04 0.16 0.64 1.30 0.91 1.14 1.25 0.80 0.65 0.47 0.38 0.35
5.54 7.05 10.73 9.55 7.17 5.94 6.78 5.98 3.58 2.63 1.74 1.50 1.48 1.79 1.43 2.21 1.72 1.28 1.40 1.61 0.78 0.42 0.62 0.48 0.33 0.54 0.22 0.24 0.21 0.19 0.11 0.10 0.22 0.46 0.99 0.65 0.86 1.40 0.99 0.60 0.41 0.31 0.27
2.60 3.37 3.98 4.09 3.32 2.93 3.65 4.60 4.44 3.05 2.55 2.21 1.49 1.61 1.74 1.69 1.59 1.43 1.46 1.68 1.33 0.59 0.52 0.52 0.69 0.52 0.57 0.39 0.22 0.26 0.30 0.29 0.18 0.57 0.66 0.41 0.67 1.13 1.11 0.67 0.53 0.44 0.30
2.30 1.64 1.69 1.30 0.90 0.88 1.34 2.08 2.81 2.59 2.65 2.61 2.12 1.37 2.08 2.20 1.31 1.60 1.83 1.64 1.13 0.61 0.56 0.59 0.57 0.61 0.59 0.63 0.65 0.64 0.46 0.21 0.31 0.38 0.46 0.31 0.59 0.63 0.95 1.15 0.80 0.56 0.50
0.95 0.78 0.51 0.41 0.33 0.30 0.31 0.48 0.80 1.57 2.31 2.35 2.90 1.66 1.55 2.43 1.42 1.50 1.89 1.38 1.16 0.76 0.54 0.56 0.52 0.56 0.54 0.44 0.59 0.52 0.25 0.19 0.31 0.56 0.40 0.29 0.50 0.54 0.90 1.09 0.68 0.67 0.69
0.32 0.22 0.28 0.50 0.51 0.25 0.28 0.29 0.37 0.78 1.56 1.62 2.61 2.26 1.00 1.45 1.74 1.82 2.22 1.40 0.98 0.93 0.74 0.65 0.38 0.32 0.27 0.29 0.34 0.38 0.41 0.42 0.52 0.53 0.43 0.21 0.45 0.68 0.94 0.71 0.58 0.55 0.56
0.16 0.16 0.12 0.18 0.27 0.29 0.31 0.35 0.40 0.68 1.04 1.06 1.40 2.46 1.26 1.17 1.35 1.57 1.64 1.25 0.66 0.60 0.57 0.61 0.46 0.40 0.38 0.43 0.38 0.37 0.48 0.77 0.89 1.14 0.56 0.29 0.51 1.03 0.91 0.76 0.58 0.49 0.49
0.08 0.16 0.20 0.21 0.39 0.49 0.49 0.45 0.41 1.01 1.15 1.05 1.01 1.31 1.27 1.16 1.01 1.39 1.18 1.44 0.80 0.57 0.47 0.50 0.40 0.35 0.32 0.35 0.25 0.32 0.43 0.72 1.30 1.06 0.71 0.39 0.37 0.71 1.06 1.04 0.80 0.52 0.56
0.10 0.19 0.28 0.29 0.47 0.37 0.53 0.72 0.84 1.00 1.20 1.10 0.99 1.10 1.06 1.15 1.11 1.31 1.21 1.14 1.04 1.02 0.54 0.49 0.46 0.27 0.30 0.35 0.39 0.27 0.29 0.34 0.54 0.58 0.43 0.36 0.47 0.71 1.23 1.53 1.49 1.16 0.70
0.22 0.25 0.42 0.65 0.57 0.34 0.37 0.49 0.84 1.28 1.13 1.04 1.03 1.10 1.18 1.23 1.27 1.32 1.28 1.10 0.92 1.30 0.85 0.59 0.65 0.63 0.46 0.31 0.33 0.36 0.38 0.24 0.16 0.18 0.25 0.30 0.40 0.62 0.75 1.06 1.43 1.52 1.42
0.07 0.19 0.43 0.61 0.60 0.68 0.55 0.64 0.70 1.01 1.30 1.08 0.90 1.06 1.40 1.45 1.46 1.48 1.59 1.24 1.30 1.19 0.96 0.78 0.94 0.90 0.76 0.40 0.37 0.36 0.43 0.40 0.33 0.25 0.15 0.17 0.20 0.18 0.36 0.69 0.92 1.39 1.56
0.02 0.19 0.62 0.82 0.83 0.86 0.82 0.89 1.22 1.27 1.38 1.19 1.56 1.71 1.90 1.69 1.64 1.55 1.54 1.60 2.02 1.97 1.55 1.40 1.30 1.21 0.93 0.69 0.43 0.31 0.35 0.35 0.24 0.25 0.17 0.12 0.13 0.18 0.22 0.41 0.60 0.82 1.40
0.03 0.26 0.74 0.92 1.16 1.32 1.19 1.12 1.00 1.08 1.04 1.00 0.99 1.20 1.60 1.59 1.54 1.76 1.76 1.38 1.63 1.93 1.68 1.42 1.26 1.29 1.21 1.13 0.88 0.80 0.71 0.66 0.51 0.40 0.32 0.25 0.22 0.26 0.31 0.34 0.51 0.55 0.64
0.10 0.40 0.74 0.90 1.20 1.16 0.66 0.54 0.58 0.60 0.51 0.67 0.71 0.98 1.28 1.58 1.44 1.25 1.10 1.08 1.21 1.25 1.29 1.57 1.95 2.11 1.83 1.77 1.53 1.23 0.84 0.65 0.53 0.37 0.32 0.25 0.24 0.30 0.41 0.50 0.66 0.78 0.80
0.24 0.52 0.62 0.49 0.35 0.21 0.18 0.29 0.42 0.52 0.55 0.51 0.61 0.81 0.91 1.42 1.43 1.09 0.98 0.94 1.15 1.24 1.14 1.07 1.32 1.49 1.39 1.80 1.75 1.80 1.41 1.05 0.66 0.43 0.37 0.41 0.44 0.52 0.65 0.60 0.82 0.94 1.28
0.15 0.16 0.14 0.11 0.09 0.13 0.16 0.38 0.61 0.92 0.85 0.71 0.63 0.63 0.78 1.16 1.57 1.54 1.29 1.06 1.09 1.58 1.72 1.55 1.55 1.75 1.52 1.72 2.13 2.24 1.91 1.26 0.87 0.74 0.97 0.92 0.91 0.88 0.92 1.25 1.77 2.15 2.45
0.03 0.14 0.15 0.15 0.17 0.26 0.30 0.40 0.55 0.54 0.43 0.28 0.31 0.43 0.54 1.13 1.70 1.51 1.76 1.89 1.72 1.51 1.62 1.97 2.16 2.08 2.37 2.17 2.76 2.43 2.03 2.18 2.07 1.88 1.58 1.86 1.77 1.43 1.81 2.33 2.15 2.13 2.30
0.09 0.16 0.18 0.17 0.21 0.32 0.38 0.43 0.76 0.84 0.87 0.88 1.03 1.18 1.25 1.48 1.94 2.09 2.14 2.74 2.62 2.37 2.00 2.38 3.18 3.63 3.57 4.03 3.94 3.43 3.35 3.00 2.59 2.66 2.27 2.38 2.98 2.46 1.94 1.79 2.12 2.17 1.86
0.13 0.18 0.15 0.27 0.43 0.74 0.99 1.16 1.32 1.56 1.62 1.60 1.59 1.61 1.76 1.94 2.40 2.80 2.94 2.84 3.34 3.39 3.11 2.93 3.36 4.21 4.62 4.41 3.79 3.98 3.91 3.47 2.83 3.81 3.87 3.17 2.67 2.50 2.85 2.67 1.78 1.65 1.74

GFSSE_prec_precacc_294.txt.gz
Total_Precipitation_Accumulation
0.51 0.16 0.15 0.28 0.24 0.16 0.13 0.09 0.06 0.05 0.09 0.07 0.07 0.05 0.05 0.04 0.06 0.04 0.12 0.17 0.11 0.13 0.09 0.02 0.02 0.06 0.10 0.12 0.18 0.28 0.21 0.31 0.49 0.77 0.63 0.51 0.35 0.32 0.36 0.45 0.61 0.94 1.21
0.76 0.47 0.47 0.35 0.17 0.15 0.21 0.15 0.09 0.07 0.10 0.07 0.03 0.01 0.01 0.01 0.02 0.05 0.17 0.24 0.23 0.16 0.13 0.05 0.05 0.07 0.14 0.11 0.10 0.13 0.13 0.10 0.14 0.41 0.71 0.94 0.73 0.53 0.64 0.62 0.49 0.68 0.94
1.57 1.10 1.61 1.35 0.68 0.31 0.27 0.23 0.09 0.08 0.06 0.05 0.02 0.01 0.02 0.02 0.02 0.03 0.04 0.12 0.16 0.10 0.09 0.05 0.06 0.08 0.10 0.10 0.13 0.12 0.05 0.03 0.08 0.20 0.53 0.94 0.83 1.07 0.65 0.45 0.40 0.61 0.76
1.53 1.61 1.47 2.33 1.47 1.00 0.75 0.82 0.87 0.41 0.29 0.09 0.07 0.10 0.12 0.09 0.08 0.10 0.07 0.11 0.09 0.09 0.10 0.10 0.12 0.14 0.13 0.12 0.12 0.09 0.03 0.02 0.02 0.11 0.40 1.56 1.45 1.10 0.84 0.52 0.59 0.73 0.88
1.09 1.01 1.31 2.12 1.59 1.06 1.15 1.15 1.68 2.01 1.89 1.04 0.46 0.42 0.39 0.31 0.20 0.12 0.11 0.11 0.11 0.16 0.15 0.10 0.17 0.17 0.07 0.03 0.08 0.11 0.01 0.02 0.07 0.21 1.20 1.26 0.98 1.52 1.66 0.96 0.84 0.69 0.93
2.08 1.53 1.80 2.17 1.34 0.75 1.13 1.46 1.53 2.18 3.37 4.19 4.09 2.55 1.36 0.89 0.47 0.41 0.30 0.26 0.27 0.33 0.40 0.43 0.45 0.36 0.03 0.01 0.00 0.02 0.01 0.04 0.21 0.43 1.35 0.74 1.10 1.24 1.19 1.03 0.61 0.66 0.95
4.59 4.05 3.70 4.00 5.13 2.85 2.56 1.76 1.36 1.47 2.52 4.90 5.29 3.92 2.58 1.93 1.72 1.18 0.69 0.51 0.55 0.52 0.42 0.44 0.26 0.19 0.03 0.01 0.01 0.05 0.04 0.06 0.21 0.46 1.01 0.67 1.33 1.23 1.04 0.90 0.73 0.59 0.67
6.63 8.76 9.08 7.75 8.11 7.64 4.86 3.04 1.99 1.41 1.26 1.68 2.39 2.00 2.09 2.35 1.79 1.64 1.44 0.88 0.60 0.43 0.40 0.29 0.13 0.08 0.06 0.03 0.04 0.10 0.07 0.04 0.16 0.64 1.30 0.91 1.14 1.25 0.80 0.65 0.47 0.38 0.35
5.54 7.05 10.73 9.55 7.17 5.94 6.78 5.98 3.58 2.63 1.74 1.50 1.48 1.79 1.43 2.21 1.72 1.28 1.40 1.61 0.78 0.42 0.62 0.48 0.33 0.54 0.22 0.24 0.21 0.19 0.11 0.10 0.22 0.46 0.99 0.65 0.86 1.40 0.99 0.60 0.41 0.31 0.27
2.60 3.37 3.98 4.09 3.32 2.93 3.65 4.60 4.44 3.05 2.55 2.21 1.49 1.61 1.74 1.69 1.59 1.43 1.46 1.68 1.33 0.59 0.52 0.52 0.69 0.52 0.57 0.39 0.22 0.26 0.30 0.29 0.18 0.57 0.66 0.41 0.67 1.13 1.11 0.67 0.53 0.44 0.30
2.30 1.64 1.69 1.30 0.90 0.88 1.34 2.08 2.81 2.59 2.65 2.61 2.12 1.37 2.08 2.20 1.31 1.60 1.83 1.64 1.13 0.61 0.56 0.59 0.57 0.61 0.59 0.63 0.65 0.64 0.46 0.21 0.31 0.38 0.46 0.31 0.59 0.63 0.95 1.15 0.80 0.56 0.50
0.95 0.78 0.51 0.41 0.33 0.31 0.32 0.48 0.81 1.57 2.31 2.35 2.90 1.66 1.55 2.43 1.42 1.50 1.89 1.38 1.16 0.76 0.54 0.56 0.52 0.56 0.54 0.44 0.59 0.52 0.25 0.19 0.31 0.56 0.40 0.29 0.50 0.54 0.90 1.09 0.68 0.67 0.69
0.32 0.22 0.28 0.50 0.51 0.25 0.28 0.30 0.41 0.81 1.58 1.62 2.61 2.27 1.00 1.45 1.74 1.82 2.22 1.40 0.98 0.93 0.74 0.65 0.38 0.32 0.27 0.29 0.34 0.38 0.41 0.42 0.52 0.53 0.43 0.21 0.45 0.68 0.94 0.71 0.58 0.55 0.56
0.16 0.16 0.12 0.18 0.27 0.29 0.31 0.35 0.48 0.76 1.12 1.12 1.41 2.47 1.27 1.17 1.35 1.58 1.65 1.25 0.66 0.60 0.57 0.61 0.46 0.40 0.38 0.43 0.38 0.37 0.48 0.77 0.89 1.14 0.56 0.29 0.51 1.03 0.91 0.76 0.58 0.49 0.49
0.08 0.16 0.20 0.21 0.39 0.49 0.49 0.45 0.42 1.03 1.20 1.09 1.07 1.39 1.32 1.21 1.05 1.41 1.19 1.45 0.81 0.57 0.47 0.50 0.40 0.35 0.32 0.35 0.25 0.32 0.43 0.72 1.30 1.06 0.71 0.39 0.37 0.71 1.06 1.04 0.80 0.52 0.56
0.10 0.19 0.28 0.29 0.47 0.37 0.53 0.72 0.84 1.00 1.20 1.10 1.00 1.12 1.11 1.25 1.18 1.35 1.24 1.17 1.07 1.03 0.55 0.49 0.46 0.27 0.30 0.35 0.39 0.27 0.29 0.34 0.54 0.58 0.43 0.36 0.47 0.71 1.23 1.53 1.49 1.16 0.70
0.22 0.25 0.42 0.65 0.57 0.34 0.37 0.49 0.84 1.28 1.13 1.04 1.03 1.11 1.19 1.27 1.38 1.46 1.48 1.33 1.22 1.65 0.98 0.61 0.65 0.63 0.46 0.31 0.33 0.36 0.38 0.24 0.16 0.18 0.25 0.30 0.40 0.62 0.75 1.06 1.43 1.52 1.42
0.07 0.19 0.43 0.61 0.60 0.68 0.55 0.64 0.70 1.01 1.30 1.08 0.90 1.06 1.40 1.45 1.49 1.58 1.83 1.54 1.69 1.48 1.09 0.84 0.97 0.92 0.77 0.40 0.37 0.36 0.43 0.40 0.33 0.25 0.15 0.17 0.20 0.18 0.36 0.69 0.92 1.39 1.56
0.02 0.19 0.62 0.82 0.83 0.86 0.82 0.89 1.22 1.27 1.38 1.19 1.56 1.71 1.90 1.69 1.64 1.56 1.56 1.67 2.18 2.24 1.80 1.53 1.37 1.28 1.00 0.76 0.47 0.34 0.37 0.35 0.25 0.25 0.17 0.12 0.13 0.18 0.22 0.41 0.60 0.82 1.40
0.03 0.26 0.74 0.92 1.16 1.32 1.19 1.12 1.00 1.08 1.04 1.00 0.99 1.20 1.60 1.59 1.54 1.76 1.76 1.39 1.68 2.01 1.87 1.74 1.49 1.40 1.29 1.22 0.98 0.88 0.77 0.70 0.54 0.42 0.33 0.25 0.22 0.26 0.31 0.34 0.51 0.55 0.64
0.10 0.40 0.74 0.90 1.20 1.16 0.66 0.54 0.58 0.60 0.51 0.67 0.71 0.98 1.28 1.58 1.44 1.25 1.11 1.08 1.21 1.27 1.36 1.74 2.24 2.43 2.14 2.06 1.91 1.51 0.97 0.73 0.60 0.41 0.34 0.26 0.24 0.30 0.41 0.50 0.66 0.78 0.80
0.24 0.52 0.62 0.49 0.35 0.21 0.18 0.29 0.42 0.52 0.55 0.51 0.61 0.81 0.91 1.43 1.44 1.10 0.99 0.94 1.15 1.24 1.15 1.10 1.41 1.71 1.66 2.06 2.20 2.28 1.97 1.44 0.79 0.46 0.46 0.45 0.44 0.52 0.65 0.60 0.82 0.94 1.28
0.15 0.16 0.14 0.11 0.09 0.13 0.16 0.38 0.61 0.92 0.85 0.71 0.63 0.63 0.78 1.16 1.57 1.55 1.29 1.06 1.10 1.59 1.73 1.55 1.57 1.82 1.66 1.89 2.43 2.63 2.38 1.68 1.16 0.89 1.05 0.99 0.95 0.90 0.92 1.25 1.77 2.15 2.45
0.03 0.14 0.15 0.15 0.17 0.26 0.30 0.40 0.55 0.54 0.43 0.28 0.31 0.43 0.55 1.13 1.70 1.51 1.76 1.89 1.72 1.52 1.62 1.97 2.17 2.09 2.40 2.22 2.93 2.65 2.16 2.32 2.29 1.99 1.66 1.93 1.82 1.45 1.82 2.33 2.15 2.14 2.30
0.09 0.16 0.18 0.17 0.21 0.32 0.38 0.43 0.76 0.84 0.87 0.88 1.03 1.18 1.25 1.48 1.95 2.09 2.14 2.74 2.62 2.38 2.00 2.38 3.18 3.64 3.58 4.03 3.98 3.55 3.51 3.07 2.63 2.70 2.28 2.39 2.99 2.47 1.97 1.81 2.13 2.17 1.86
0.13 0.18 0.15 0.27 0.43 0.74 0.99 1.16 1.32 1.56 1.62 1.60 1.59 1.61 1.76 1.94 2.40 2.80 2.95 2.84 3.34 3.40 3.11 2.93 3.36 4.21 4.63 4.41 3.79 4.00 3.99 3.58 2.89 3.83 3.88 3.17 2.67 2.50 2.87 2.69 1.80 1.66 1.76

GFSSE_prec_precacc_297.txt.gz
Total_Precipitation_Accumulation
0.51 0.16 0.15 0.28 0.24 0.16 0.13 0.09 0.06 0.05 0.09 0.07 0.07 0.05 0.05 0.04 0.06 0.04 0.12 0.17 0.11 0.13 0.09 0.02 0.02 0.06 0.10 0.12 0.18 0.28 0.21 0.31 0.49 0.77 0.63 0.51 0.35 0.32 0.37 0.45 0.61 0.94 1.21
0.76 0.47 0.47 0.35 0.17 0.15 0.21 0.15 0.09 0.07 0.10 0.07 0.03 0.01 0.01 0.01 0.02 0.05 0.17 0.24 0.23 0.16 0.13 0.05 0.05 0.07 0.14 0.11 0.10 0.13 0.13 0.10 0.14 0.41 0.71 0.94 0.73 0.53 0.64 0.62 0.49 0.68 0.94
1.57 1.10 1.61 1.35 0.68 0.31 0.27 0.23 0.09 0.08 0.06 0.05 0.02 0.01 0.02 0.02 0.02 0.03 0.04 0.12 0.16 0.10 0.09 0.05 0.06 0.08 0.10 0.10 0.13 0.12 0.05 0.03 0.08 0.20 0.53 0.94 0.83 1.07 0.65 0.45 0.40 0.61 0.76
1.53 1.61 1.47 2.33 1.47 1.00 0.75 0.82 0.87 0.41 0.29 0.09 0.07 0.10 0.12 0.09 0.08 0.10 0.07 0.11 0.09 0.09 0.10 0.10 0.12 0.14 0.13 0.12 0.12 0.09 0.03 0.02 0.02 0.11 0.40 1.56 1.45 1.10 0.84 0.52 0.59 0.73 0.88
1.09 1.01 1.31 2.12 1.59 1.06 1.15 1.15 1.68 2.01 1.89 1.04 0.46 0.42 0.39 0.31 0.20 0.12 0.11 0.11 0.11 0.16 0.15 0.10 0.17 0.17 0.07 0.03 0.08 0.11 0.01 0.02 0.07 0.21 1.20 1.26 0.98 1.52 1.66 0.96 0.84 0.69 0.93
2.08 1.53 1.80 2.17 1.34 0.75 1.13 1.46 1.53 2.18 3.37 4.19 4.09 2.55 1.36 0.89 0.47 0.41 0.30 0.26 0.27 0.33 0.40 0.43 0.45 0.36 0.03 0.01 0.00 0.02 0.01 0.04 0.21 0.43 1.35 0.74 1.10 1.24 1.19 1.03 0.61 0.66 0.95
4.59 4.05 3.70 4.00 5.13 2.85 2.56 1.76 1.36 1.47 2.52 4.90 5.29 3.92 2.58 1.93 1.72 1.18 0.69 0.51 0.55 0.52 0.42 0.44 0.26 0.19 0.03 0.01 0.01 0.05 0.04 0.06 0.21 0.46 1.01 0.67 1.33 1.23 1.04 0.90 0.73 0.59 0.67
6.63 8.76 9.08 7.75 8.11 7.64 4.86 3.04 1.99 1.41 1.26 1.68 2.39 2.00 2.09 2.35 1.79 1.64 1.44 0.88 0.60 0.43 0.40 0.29 0.13 0.08 0.06 0.03 0.04 0.10 0.07 0.04 0.16 0.64 1.30 0.91 1.14 1.25 0.80 0.65 0.47 0.38 0.35
5.54 7.05 10.73 9.55 7.17 5.94 6.78 5.98 3.58 2.63 1.74 1.50 1.48 1.79 1.43 2.21 1.72 1.28 1.40 1.61 0.78 0.42 0.62 0.48 0.33 0.54 0.22 0.24 0.21 0.19 0.11 0.10 0.22 0.46 0.99 0.65 0.86 1.40 0.99 0.60 0.41 0.31 0.27
2.60 3.37 3.98 4.09 3.32 2.93 3.65 4.61 4.44 3.05 2.55 2.21 1.49 1.61 1.74 1.69 1.59 1.43 1.46 1.68 1.33 0.59 0.52 0.52 0.69 0.52 0.57 0.39 0.22 0.26 0.30 0.29 0.18 0.57 0.66 0.41 0.67 1.13 1.11 0.67 0.53 0.44 0.30
2.30 1.64 1.69 1.30 0.90 0.88 1.34 2.08 2.81 2.59 2.65 2.61 2.12 1.37 2.08 2.20 1.31 1.60 1.83 1.64 1.13 0.61 0.56 0.59 0.57 0.61 0.59 0.63 0.65 0.64 0.46 0.21 0.31 0.38 0.46 0.31 0.59 0.63 0.95 1.15 0.80 0.56 0.50
0.95 0.78 0.51 0.41 0.33 0.31 0.32 0.49 0.82 1.58 2.31 2.35 2.90 1.66 1.55 2.43 1.42 1.50 1.89 1.38 1.16 0.76 0.54 0.56 0.52 0.56 0.54 0.44 0.59 0.52 0.25 0.19 0.31 0.56 0.40 0.29 0.50 0.54 0.90 1.09 0.68 0.67 0.69
0.32 0.22 0.28 0.50 0.51 0.25 0.28 0.31 0.43 0.82 1.59 1.62 2.61 2.27 1.00 1.45 1.75 1.83 2.22 1.40 0.98 0.93 0.74 0.65 0.38 0.32 0.27 0.29 0.34 0.38 0.41 0.42 0.52 0.53 0.43 0.21 0.45 0.68 0.94 0.71 0.58 0.55 0.56
0.16 0.16 0.12 0.18 0.27 0.29 0.31 0.35 0.48 0.76 1.12 1.12 1.41 2.47 1.27 1.17 1.36 1.58 1.66 1.26 0.67 0.60 0.57 0.61 0.46 0.40 0.38 0.43 0.38 0.37 0.48 0.77 0.89 1.14 0.56 0.29 0.51 1.03 0.91 0.76 0.58 0.49 0.49
0.08 0.16 0.20 0.21 0.39 0.49 0.49 0.45 0.42 1.03 1.20 1.09 1.07 1.39 1.32 1.22 1.05 1.41 1.19 1.47 0.82 0.57 0.47 0.50 0.40 0.35 0.32 0.35 0.25 0.32 0.43 0.72 1.30 1.06 0.71 0.39 0.37 0.71 1.06 1.04 0.80 0.52 0.56
0.10 0.19 0.28 0.29 0.47 0.37 0.53 0.72 0.84 1.00 1.20 1.10 1.00 1.12 1.11 1.26 1.19 1.35 1.25 1.18 1.11 1.09 0.58 0.51 0.47 0.28 0.30 0.35 0.39 0.27 0.29 0.34 0.54 0.58 0.43 0.36 0.47 0.71 1.23 1.53 1.49 1.16 0.70
0.22 0.25 0.42 0.65 0.57 0.34 0.37 0.49 0.84 1.28 1.13 1.04 1.03 1.11 1.19 1.27 1.38 1.46 1.49 1.34 1.25 1.74 1.18 0.72 0.68 0.63 0.46 0.32 0.33 0.36 0.38 0.24 0.16 0.18 0.25 0.30 0.40 0.62 0.75 1.06 1.43 1.52 1.42
0.07 0.19 0.43 0.61 0.60 0.68 0.55 0.64 0.70 1.01 1.30 1.08 0.90 1.06 1.40 1.45 1.49 1.58 1.83 1.55 1.70 1.49 1.12 0.87 0.99 0.93 0.77 0.41 0.38 0.36 0.43 0.40 0.33 0.25 0.15 0.17 0.20 0.18 0.36 0.69 0.92 1.39 1.56
0.02 0.19 0.62 0.82 0.83 0.86 0.82 0.89 1.22 1.27 1.38 1.19 1.56 1.71 1.90 1.69 1.64 1.56 1.56 1.68 2.18 2.25 1.82 1.56 1.41 1.33 1.02 0.78 0.48 0.35 0.38 0.35 0.25 0.25 0.17 0.12 0.13 0.18 0.22 0.41 0.60 0.82 1.40
0.03 0.26 0.74 0.92 1.16 1.32 1.19 1.12 1.00 1.08 1.04 1.00 0.99 1.20 1.60 1.59 1.54 1.76 1.77 1.39 1.68 2.02 1.88 1.76 1.52 1.43 1.33 1.25 1.01 0.90 0.78 0.70 0.55 0.42 0.33 0.26 0.22 0.26 0.31 0.34 0.51 0.55 0.64
0.10 0.40 0.74 0.90 1.20 1.16 0.66 0.54 0.58 0.60 0.51 0.67 0.71 0.98 1.28 1.58 1.44 1.25 1.11 1.08 1.22 1.28 1.36 1.74 2.25 2.44 2.17 2.10 1.95 1.52 0.99 0.75 0.62 0.42 0.35 0.27 0.25 0.31 0.41 0.50 0.66 0.78 0.80
0.24 0.52 0.62 0.49 0.35 0.21 0.18 0.29 0.42 0.52 0.55 0.51 0.61 0.81 0.91 1.43 1.44 1.10 0.99 0.94 1.16 1.25 1.15 1.10 1.41 1.72 1.68 2.09 2.29 2.34 2.00 1.49 0.82 0.47 0.47 0.45 0.45 0.54 0.65 0.62 0.83 0.94 1.28
0.15 0.16 0.14 0.11 0.09 0.13 0.16 0.38 0.61 0.92 0.85 0.71 0.63 0.63 0.78 1.16 1.58 1.55 1.29 1.06 1.10 1.61 1.74 1.56 1.58 1.84 1.68 1.90 2.52 2.84 2.54 1.81 1.33 1.05 1.09 1.00 0.96 0.92 0.94 1.28 1.79 2.17 2.46
0.03 0.14 0.15 0.15 0.17 0.26 0.30 0.40 0.55 0.54 0.43 0.28 0.31 0.43 0.55 1.13 1.71 1.51 1.76 1.89 1.73 1.53 1.63 1.98 2.18 2.10 2.43 2.23 2.96 2.72 2.29 2.44 2.52 2.57 2.17 2.18 1.90 1.48 1.84 2.35 2.16 2.17 2.34
0.09 0.16 0.18 0.17 0.21 0.32 0.38 0.43 0.76 0.84 0.87 0.88 1.03 1.18 1.25 1.48 1.95 2.09 2.14 2.74 2.63 2.39 2.01 2.39 3.18 3.65 3.61 4.06 3.99 3.58 3.58 3.19 2.83 3.05 2.62 2.64 3.22 2.58 2.00 1.84 2.16 2.18 1.88
0.13 0.18 0.15 0.27 0.43 0.74 0.99 1.16 1.32 1.56 1.62 1.60 1.59 1.61 1.76 1.94 2.40 2.81 2.95 2.84 3.36 3.41 3.12 2.94 3.37 4.22 4.65 4.45 3.80 4.01 4.03 3.64 2.99 4.04 4.13 3.34 2.78 2.59 2.95 2.76 1.84 1.67 1.76